This is the latest recevied weather packets stored in our database for station/object N5PA. If no packets are shown the sender has not sent any weather packets the latest 10 day(s).
| Time | Temp. | Humidity | Pressure | Rain* | Wind** | Luminosity | Snow |
|---|---|---|---|---|---|---|---|
| 1777605910 | 16.67° C | 43% | 1014.4 hPa | 0 mm | - | 1020 W/m² | - |
| 1777605609 | 16.67° C | 42% | 1014.3 hPa | 0 mm | - | 1020 W/m² | - |
| 1777605308 | 16.67° C | 40% | 1014.1 hPa | 0 mm | - | 1020 W/m² | - |
| 1777605009 | 16.67° C | 40% | 1013.8 hPa | 0 mm | - | 1014 W/m² | - |
| 1777604709 | 16.67° C | 39% | 1013.6 hPa | 0.25 mm | - | 1018 W/m² | - |
| 1777604409 | 16.67° C | 39% | 1013.3 hPa | 0.25 mm | - | 1020 W/m² | - |
| 1777603810 | 17.22° C | 37% | 1013.1 hPa | 0.25 mm | - | 1020 W/m² | - |
| 1777603209 | 17.22° C | 37% | 1013.2 hPa | 0.76 mm | - | 1016 W/m² | - |
| 1777602910 | 17.22° C | 37% | 1013.2 hPa | 1.02 mm | - | 1014 W/m² | - |
| 1777602610 | 17.22° C | 37% | 1013.2 hPa | 1.27 mm | - | 1016 W/m² | - |
| 1777602310 | 17.22° C | 37% | 1013.3 hPa | 1.78 mm | - | 1014 W/m² | - |
| 1777602009 | 17.22° C | 37% | 1013.3 hPa | 2.03 mm | - | 1016 W/m² | - |
| 1777601710 | 17.22° C | 37% | 1013.2 hPa | 2.29 mm | - | 1014 W/m² | - |
| 1777601409 | 17.22° C | 37% | 1012.8 hPa | 2.79 mm | - | 1014 W/m² | - |
| 1777601110 | 17.22° C | 37% | 1012.6 hPa | 2.79 mm | - | 1013 W/m² | - |
| 1777600807 | 17.22° C | 37% | 1012.6 hPa | 3.3 mm | - | 1011 W/m² | - |
| 1777600510 | 17.78° C | 37% | 1012.5 hPa | 4.06 mm | - | 1016 W/m² | - |
| 1777600209 | 17.78° C | 37% | 1012.8 hPa | 4.06 mm | - | 1013 W/m² | - |
| 1777599909 | 17.78° C | 37% | 1013.1 hPa | 3.81 mm | - | 1013 W/m² | - |
| 1777599609 | 17.78° C | 37% | 1013.1 hPa | 3.56 mm | - | 1014 W/m² | - |
| 1777599308 | 17.78° C | 37% | 1013.1 hPa | 3.3 mm | - | 1013 W/m² | - |
| 1777599009 | 17.78° C | 37% | 1013.2 hPa | 2.79 mm | - | 1014 W/m² | - |
| 1777598709 | 17.78° C | 38% | 1013.4 hPa | 2.54 mm | - | 1013 W/m² | - |
| 1777598408 | 17.78° C | 38% | 1013 hPa | 2.29 mm | - | 1014 W/m² | - |
| 1777598110 | 17.78° C | 39% | 1012.7 hPa | 2.03 mm | - | 1014 W/m² | - |
* Rain latest hour (hover to see other rain measurements)
** Current wind speed in m/s (hover to see current wind gust speed)